| time (UTC) | temp F | wind direction | speed MPH | gust MPH | rain 1hr in | rain 24hr in | rain mn in | humidity % | barometer mb |
| 20260509091522 | 69 | 120 | 0.0 | 0.0 | 0.00 | 0.00 | 0.00 | 94 | 1003.6 |
| 20260509090035 | 68 | 120 | 0.0 | 0.0 | 0.00 | 0.00 | 0.00 | 94 | 1003.5 |
| 20260509084522 | 68 | 120 | 0.0 | 1.0 | 0.00 | 0.00 | 0.00 | 95 | 1003.5 |
| 20260509083024 | 68 | 120 | 0.0 | 1.0 | 0.00 | 0.00 | 0.00 | 94 | 1004.0 |
| 20260509081521 | 67 | 121 | 0.0 | 0.0 | 0.00 | 0.00 | 0.00 | 94 | 1004.1 |
| 20260509080018 | 66 | 121 | 0.0 | 0.0 | 0.00 | 0.00 | 0.00 | 94 | 1003.9 |
| 20260509074517 | 67 | 121 | 0.0 | 0.0 | 0.00 | 0.00 | 0.00 | 94 | 1003.4 |
| 20260509073031 | 67 | 121 | 0.0 | 0.0 | 0.00 | 0.00 | 0.00 | 94 | 1003.3 |
| 20260509071515 | 67 | 121 | 0.0 | 1.0 | 0.00 | 0.00 | 0.00 | 93 | 1003.2 |
| 20260509070016 | 68 | 121 | 0.0 | 0.0 | 0.00 | 0.00 | 0.00 | 94 | 1003.8 |
| 20260509064514 | 67 | 121 | 0.0 | 1.0 | 0.00 | 0.00 | 0.00 | 94 | 1003.7 |
| 20260509063021 | 67 | 120 | 0.0 | 0.0 | 0.00 | 0.00 | 0.00 | 94 | 1003.5 |
| 20260509061507 | 66 | 121 | 0.0 | 0.0 | 0.00 | 0.00 | 0.00 | 94 | 1003.1 |
| 20260509060007 | 66 | 121 | 0.0 | 0.0 | 0.00 | 0.00 | 0.00 | 94 | 1002.9 |
| 20260509054505 | 66 | 121 | 0.0 | 0.0 | 0.00 | 0.00 | 0.00 | 94 | 1002.6 |
| 20260509053002 | 67 | 121 | 0.0 | 1.0 | 0.00 | 0.00 | 0.00 | 94 | 1002.8 |
| 20260509051611 | 67 | 121 | 0.0 | 1.0 | 0.00 | 0.00 | 0.00 | 94 | 1003.0 |
| 20260509044604 | 68 | 120 | 0.0 | 1.0 | 0.00 | 0.00 | 0.00 | 93 | 1003.1 |
| 20260509043059 | 69 | 121 | 0.0 | 0.0 | 0.00 | 0.00 | 0.00 | 93 | 1003.1 |
| 20260509041556 | 69 | 121 | 0.0 | 0.0 | 0.00 | 0.00 | 0.00 | 93 | 1003.1 |
| 20260509040107 | 69 | 121 | 0.0 | 0.0 | 0.00 | 0.00 | 0.00 | 93 | 1002.9 |
| 20260509034554 | 69 | 120 | 0.0 | 0.0 | 0.00 | 0.00 | 0.00 | 92 | 1002.5 |
| 20260509033114 | 70 | 121 | 0.0 | 1.0 | 0.00 | 0.00 | 0.00 | 92 | 1002.3 |
| 20260509031553 | 70 | 120 | 0.0 | 1.0 | 0.00 | 0.00 | 0.00 | 92 | 1002.2 |
| 20260509030052 | 71 | 120 | 0.0 | 0.0 | 0.00 | 0.00 | 0.00 | 90 | 1001.9 |
| 20260509024601 | 71 | 121 | 0.0 | 0.0 | 0.00 | 0.00 | 0.00 | 92 | 1001.9 |
| 20260509023050 | 70 | 121 | 0.0 | 0.0 | 0.00 | 0.00 | 0.00 | 91 | 1001.7 |
| 20260509021551 | 71 | 121 | 0.0 | 0.0 | 0.00 | 0.00 | 0.00 | 90 | 1001.6 |
| 20260509014549 | 72 | 121 | 0.0 | 1.0 | 0.00 | 0.00 | 0.00 | 89 | 1001.2 |
| 20260509013047 | 72 | 121 | 0.0 | 0.0 | 0.00 | 0.00 | 0.00 | 89 | 1001.3 |
| 20260509011551 | 73 | 121 | 0.0 | 0.0 | 0.00 | 0.00 | 0.00 | 88 | 1001.3 |
| 20260509010046 | 73 | 121 | 0.0 | 0.0 | 0.00 | 0.00 | 0.00 | 87 | 1001.4 |
| 20260509004549 | 73 | 121 | 0.0 | 1.0 | 0.00 | 0.00 | 0.00 | 87 | 1001.5 |
| 20260509003053 | 73 | 121 | 0.0 | 1.0 | 0.00 | 0.00 | 0.00 | 87 | 1001.6 |
| 20260509001545 | 73 | 120 | 0.0 | 0.0 | 0.00 | 0.00 | 0.00 | 86 | 1001.4 |
| 20260509000043 | 73 | 136 | 0.0 | 0.0 | 0.00 | 0.00 | 0.00 | 86 | 1001.4 |
| 20260508234544 | 73 | 126 | 0.0 | 0.0 | 0.00 | 0.00 | 0.00 | 85 | 1001.5 |
| 20260508233047 | 73 | 141 | 0.0 | 0.0 | 0.00 | 0.00 | 0.00 | 85 | 1001.6 |
| 20260508231547 | 73 | 127 | 0.0 | 0.0 | 0.00 | 0.00 | 0.00 | 85 | 1001.5 |
| 20260508230044 | 74 | 131 | 0.0 | 0.0 | 0.00 | 0.00 | 0.00 | 84 | 1001.4 |
| 20260508224550 | 73 | 135 | 0.0 | 0.0 | 0.00 | 0.00 | 0.00 | 84 | 1001.6 |
| 20260508223038 | 74 | 144 | 0.0 | 0.0 | 0.00 | 0.00 | 0.00 | 83 | 1001.7 |
| 20260508221536 | 74 | 128 | 0.0 | 0.0 | 0.00 | 0.00 | 0.00 | 83 | 1001.9 |
| 20260508220032 | 74 | 134 | 0.0 | 0.0 | 0.00 | 0.00 | 0.00 | 83 | 1002.1 |
| 20260508214533 | 73 | 136 | 0.0 | 0.0 | 0.00 | 0.00 | 0.00 | 84 | 1002.4 |
| 20260508213027 | 73 | 136 | 0.0 | 0.0 | 0.00 | 0.00 | 0.00 | 84 | 1002.5 |
| 20260508211527 | 73 | 117 | 0.0 | 0.0 | 0.00 | 0.00 | 0.00 | 83 | 1002.6 |
| 20260508210032 | 72 | 84 | 0.0 | 1.0 | 0.00 | 0.00 | 0.00 | 84 | 1003.0 |
| 20260508204521 | 71 | 161 | 0.0 | 0.0 | 0.00 | 0.00 | 0.00 | 84 | 1003.4 |
| 20260508203024 | 71 | 146 | 0.0 | 0.0 | 0.00 | 0.00 | 0.00 | 83 | 1003.4 |
| 20260508201517 | 71 | 136 | 0.0 | 0.0 | 0.00 | 0.00 | 0.00 | 84 | 1003.6 |
| 20260508200014 | 71 | 129 | 0.0 | 0.0 | 0.00 | 0.00 | 0.00 | 84 | 1003.7 |
| 20260508194510 | 70 | 97 | 0.0 | 0.0 | 0.00 | 0.00 | 0.00 | 84 | 1003.8 |
| 20260508193009 | 70 | 115 | 0.0 | 0.0 | 0.00 | 0.00 | 0.00 | 84 | 1004.0 |
| 20260508191506 | 70 | 125 | 0.0 | 0.0 | 0.00 | 0.00 | 0.00 | 84 | 1004.1 |
| 20260508190005 | 69 | 107 | 0.0 | 0.0 | 0.00 | 0.00 | 0.00 | 84 | 1004.3 |
| 20260508184504 | 69 | 115 | 0.0 | 0.0 | 0.00 | 0.00 | 0.00 | 83 | 1004.4 |
| 20260508183001 | 69 | 117 | 0.0 | 0.0 | 0.00 | 0.00 | 0.00 | 82 | 1004.6 |
| 20260508181658 | 68 | 120 | 0.0 | 1.0 | 0.00 | 0.00 | 0.00 | 83 | 1004.8 |
| 20260508180058 | 67 | 49 | 0.0 | 1.0 | 0.00 | 0.00 | 0.00 | 84 | 1005.2 |
| 20260508174554 | 67 | 113 | 0.0 | 1.0 | 0.00 | 0.00 | 0.00 | 84 | 1005.5 |
| 20260508173052 | 67 | 110 | 0.0 | 1.0 | 0.00 | 0.00 | 0.00 | 84 | 1005.8 |
| 20260508171549 | 67 | 107 | 0.0 | 1.0 | 0.00 | 0.00 | 0.00 | 83 | 1006.0 |
| 20260508170048 | 68 | 141 | 0.0 | 1.0 | 0.00 | 0.00 | 0.00 | 83 | 1006.3 |
| 20260508164547 | 68 | 109 | 0.0 | 1.0 | 0.00 | 0.00 | 0.00 | 82 | 1006.3 |
| 20260508163059 | 67 | 101 | 0.0 | 0.0 | 0.00 | 0.00 | 0.00 | 82 | 1006.3 |
| 20260508161554 | 67 | 127 | 0.0 | 1.0 | 0.00 | 0.00 | 0.00 | 81 | 1006.4 |
| 20260508160044 | 67 | 115 | 0.0 | 0.0 | 0.00 | 0.00 | 0.00 | 81 | 1006.4 |
| 20260508154542 | 67 | 63 | 0.0 | 1.0 | 0.00 | 0.00 | 0.00 | 80 | 1006.4 |
| 20260508153054 | 67 | 74 | 0.0 | 1.0 | 0.00 | 0.00 | 0.00 | 80 | 1006.2 |
| 20260508151538 | 66 | 51 | 0.0 | 0.0 | 0.00 | 0.00 | 0.00 | 81 | 1006.4 |
| 20260508150036 | 65 | 14 | 0.0 | 1.0 | 0.00 | 0.00 | 0.00 | 84 | 1006.5 |
| 20260508144536 | 65 | 41 | 0.0 | 0.0 | 0.00 | 0.00 | 0.00 | 81 | 1006.8 |
| 20260508143055 | 64 | 29 | 0.0 | 0.0 | 0.00 | 0.00 | 0.00 | 83 | 1006.8 |
| 20260508141536 | 63 | 112 | 0.0 | 0.0 | 0.00 | 0.00 | 0.00 | 82 | 1006.8 |
| 20260508140031 | 64 | 302 | 0.0 | 1.0 | 0.00 | 0.00 | 0.00 | 83 | 1006.8 |
| 20260508134535 | 63 | 242 | 0.0 | 1.0 | 0.00 | 0.00 | 0.00 | 83 | 1007.0 |
| 20260508133026 | 62 | 140 | 0.0 | 1.0 | 0.00 | 0.00 | 0.00 | 85 | 1007.3 |
| 20260508131526 | 62 | 141 | 0.0 | 0.0 | 0.00 | 0.00 | 0.00 | 85 | 1007.1 |
| 20260508130024 | 62 | 141 | 0.0 | 1.0 | 0.00 | 0.00 | 0.00 | 85 | 1007.0 |
| 20260508124528 | 62 | 141 | 0.0 | 0.0 | 0.00 | 0.00 | 0.00 | 87 | 1006.8 |
| 20260508123023 | 0 | 0.0 | 0.0 | 0.00 | 0.00 | 0.00 | 1006.5 | ||
| 20260508121516 | 0 | 0.0 | 0.0 | 0.00 | 0.00 | 0.00 | 1006.5 | ||
| 20260508120011 | 0 | 0.0 | 0.0 | 0.00 | 0.00 | 0.00 | 1007.0 | ||
| 20260508114506 | 0 | 0.0 | 0.0 | 0.00 | 0.00 | 0.00 | 1007.0 | ||
| 20260508113002 | 0 | 0.0 | 0.0 | 0.00 | 0.00 | 0.00 | 1007.1 | ||
| 20260508111601 | 0 | 0.0 | 0.0 | 0.00 | 0.00 | 0.00 | 1007.0 | ||
| 20260508104551 | 0 | 0.0 | 0.0 | 0.00 | 0.00 | 0.00 | 1006.9 | ||
| 20260508103049 | 0 | 0.0 | 0.0 | 0.00 | 0.00 | 0.00 | 1007.1 | ||
| 20260508101542 | 0 | 0.0 | 0.0 | 0.00 | 0.00 | 0.00 | 1007.2 | ||
| 20260508100056 | 0 | 0.0 | 0.0 | 0.00 | 0.00 | 0.00 | 1007.8 | ||
| 20260508094540 | 58 | 321 | 0.0 | 0.0 | 0.00 | 0.00 | 0.00 | 94 | 1008.2 |
| 20260508093037 | 58 | 321 | 0.0 | 0.0 | 0.00 | 0.00 | 0.00 | 94 | 1008.1 |